Location: Long Geng
(2.6167°N, 114.1333°E)
Time: 07:17:06
(UTC+00:00)

Ariane 44LP R/B - Pass Details

Date: 28 September 2021
Orbit: 475 x 17834 km, 3.6° (Epoch: 26 October)

Event Time Altitude Azimuth Distance (km) Brightness Sun altitude
Rises 10:10:07 0° 269° (W) 22,145 15.9 0.9°
Reaches altitude 10° 11:16:45 10° 267° (W) 21,810 12.7 -15.8°
Maximum altitude 13:11:13 73° 184° (S) 3,234 6.8 -44.3°
Enters shadow 13:12:24 72° 157° (SSE) 3,017 6.6 -44.6°
